• In Deutschland
  • Länderverzeichnis
  • Für 7 Tage
  • Wassertemperatur
  • Satellitenkarten
  • Wetterkarte
  • Widgets
  • user-avatar
    Anmelden

    Stündliche Wetter Argenbuhl

    Heute, 20 Oktober, Freitag

    Zeit Temperatur Niederschläge Wind Luftdruck Luftfeuchtigkeit
    00:00 +10°C° 0 mm 2 m/S 701 mmHg 66%
    01:00 +12°C° 0 mm 2 m/S 701 mmHg 62%
    02:00 +10°C° 0 mm 2 m/S 701 mmHg 64%
    03:00 +10°C° 0 mm 2 m/S 701 mmHg 67%
    04:00 +10°C° 0 mm 2 m/S 702 mmHg 70%
    05:00 +10°C° 0 mm 2 m/S 702 mmHg 72%
    06:00 +10°C° 0 mm 2 m/S 702 mmHg 73%
    07:00 +10°C° 0 mm 3 m/S 702 mmHg 74%
    08:00 +13°C° 0 mm 2 m/S 702 mmHg 69%
    09:00 +15°C° 0 mm 2 m/S 703 mmHg 64%
    10:00 +17°C° 0 mm 2 m/S 703 mmHg 59%
    11:00 +18°C° 0 mm 2 m/S 703 mmHg 57%
    12:00 +19°C° 0 mm 2 m/S 703 mmHg 54%
    13:00 +20°C° 0 mm 3 m/S 704 mmHg 51%
    14:00 +19°C° 0 mm 2 m/S 704 mmHg 57%
    15:00 +18°C° 0 mm 2 m/S 703 mmHg 62%
    16:00 +18°C° 0 mm 2 m/S 703 mmHg 67%
    17:00 +16°C° 0 mm 2 m/S 703 mmHg 73%
    18:00 +14°C° 0 mm 2 m/S 703 mmHg 78%
    19:00 +12°C° 0 mm 2 m/S 703 mmHg 84%
    20:00 +12°C° 0 mm 2 m/S 704 mmHg 83%
    21:00 +12°C° 0 mm 2 m/S 704 mmHg 82%
    22:00 +12°C° 0 mm 2 m/S 704 mmHg 82%
    23:00 +12°C° 0 mm 2 m/S 704 mmHg 80%

    Morgen, 21 Oktober, Samstag

    Zeit Temperatur Niederschläge Wind Luftdruck Luftfeuchtigkeit
    00:00 +12°C° 0 mm 2 m/S 704 mmHg 79%
    01:00 +12°C° 0 mm 2 m/S 704 mmHg 77%
    02:00 +12°C° 0 mm 2 m/S 704 mmHg 76%
    03:00 +12°C° 0 mm 2 m/S 704 mmHg 75%
    04:00 +12°C° 0 mm 2 m/S 704 mmHg 73%
    05:00 +12°C° 0 mm 2 m/S 704 mmHg 71%
    06:00 +12°C° 0 mm 2 m/S 704 mmHg 69%
    07:00 +13°C° 0 mm 2 m/S 704 mmHg 67%
    08:00 +14°C° 0 mm 2 m/S 704 mmHg 65%
    09:00 +16°C° 0 mm 2 m/S 704 mmHg 63%
    10:00 +17°C° 0 mm 2 m/S 704 mmHg 60%
    11:00 +18°C° 0 mm 2 m/S 704 mmHg 58%
    12:00 +19°C° 0 mm 2 m/S 704 mmHg 56%
    13:00 +20°C° 0 mm 3 m/S 704 mmHg 54%
    14:00 +19°C° 0 mm 2 m/S 703 mmHg 59%
    15:00 +18°C° 0 mm 2 m/S 703 mmHg 64%
    16:00 +17°C° 0 mm 2 m/S 703 mmHg 69%
    17:00 +16°C° 0 mm 2 m/S 703 mmHg 73%
    18:00 +14°C° 0 mm 2 m/S 703 mmHg 78%
    19:00 +13°C° 0 mm 2 m/S 703 mmHg 82%
    20:00 +12°C° 0,3 mm 2 m/S 704 mmHg 86%
    21:00 +11°C° 0,3 mm 3 m/S 704 mmHg 89%
    22:00 +10°C° 0,3 mm 3 m/S 704 mmHg 92%
    23:00 +10°C° 0,9 mm 3 m/S 704 mmHg 93%

    übermorgen, 22 Oktober, Sonntag

    Zeit Temperatur Niederschläge Wind Luftdruck Luftfeuchtigkeit
    00:00 +9°C° 0,9 mm 3 m/S 704 mmHg 94%
    01:00 +9°C° 0,9 mm 3 m/S 704 mmHg 95%
    02:00 +8°C° 0,9 mm 3 m/S 704 mmHg 95%
    03:00 +8°C° 0,9 mm 3 m/S 704 mmHg 95%
    04:00 +8°C° 0,9 mm 3 m/S 704 mmHg 95%
    05:00 +8°C° 0,9 mm 3 m/S 704 mmHg 95%
    06:00 +7°C° 0,9 mm 2 m/S 704 mmHg 95%
    07:00 +7°C° 0,9 mm 2 m/S 703 mmHg 95%
    08:00 +7°C° 0,9 mm 2 m/S 704 mmHg 94%
    09:00 +7°C° 0,9 mm 3 m/S 704 mmHg 92%
    10:00 +7°C° 0,9 mm 3 m/S 704 mmHg 91%
    11:00 +8°C° 0,6 mm 3 m/S 703 mmHg 89%
    12:00 +8°C° 0,6 mm 3 m/S 703 mmHg 87%
    13:00 +8°C° 0,6 mm 3 m/S 703 mmHg 85%
    14:00 +8°C° 0,7 mm 3 m/S 703 mmHg 86%
    15:00 +8°C° 0,7 mm 3 m/S 703 mmHg 86%
    16:00 +6°C° 0,7 mm 4 m/S 703 mmHg 87%
    17:00 +6°C° 0,4 mm 4 m/S 703 mmHg 89%
    18:00 +5°C° 0,4 mm 3 m/S 703 mmHg 91%
    19:00 +4°C° 0,4 mm 3 m/S 704 mmHg 93%
    20:00 +4°C° 0,3 mm 3 m/S 704 mmHg 93%
    21:00 +4°C° 0,3 mm 3 m/S 704 mmHg 94%
    22:00 +4°C° 0,3 mm 4 m/S 704 mmHg 94%
    23:00 +4°C° 0,4 mm 4 m/S 704 mmHg 94%

    23 Oktober, Montag

    Zeit Temperatur Niederschläge Wind Luftdruck Luftfeuchtigkeit
    00:00 +4°C° 0,4 mm 4 m/S 704 mmHg 95%
    01:00 +4°C° 0,4 mm 4 m/S 704 mmHg 95%
    02:00 +4°C° 0,6 mm 4 m/S 704 mmHg 95%
    03:00 +4°C° 0,6 mm 4 m/S 704 mmHg 95%
    04:00 +4°C° 0,6 mm 4 m/S 704 mmHg 95%
    05:00 +4°C° 1 mm 4 m/S 704 mmHg 95%
    06:00 +4°C° 1 mm 4 m/S 704 mmHg 95%
    07:00 +4°C° 1 mm 4 m/S 704 mmHg 95%
    08:00 +4°C° 0,6 mm 4 m/S 704 mmHg 95%
    09:00 +5°C° 0,6 mm 4 m/S 704 mmHg 94%
    10:00 +5°C° 0,6 mm 4 m/S 704 mmHg 93%
    11:00 +5°C° 0,6 mm 4 m/S 704 mmHg 93%
    12:00 +6°C° 0,6 mm 4 m/S 704 mmHg 93%
    13:00 +6°C° 0,6 mm 4 m/S 705 mmHg 93%
    14:00 +6°C° 0,6 mm 4 m/S 705 mmHg 93%
    15:00 +6°C° 0,6 mm 4 m/S 705 mmHg 94%
    16:00 +6°C° 0,6 mm 4 m/S 705 mmHg 94%
    17:00 +6°C° 0,5 mm 4 m/S 705 mmHg 95%
    18:00 +6°C° 0,5 mm 4 m/S 705 mmHg 95%
    19:00 +6°C° 0,5 mm 4 m/S 705 mmHg 96%
    20:00 +7°C° 0,7 mm 3 m/S 706 mmHg 96%
    21:00 +5°C° 0,7 mm 3 m/S 706 mmHg 96%
    22:00 +5°C° 0,7 mm 3 m/S 706 mmHg 97%
    23:00 +5°C° 0,7 mm 3 m/S 706 mmHg 97%

    24 Oktober, Dienstag

    Zeit Temperatur Niederschläge Wind Luftdruck Luftfeuchtigkeit
    00:00 +5°C° 0,7 mm 3 m/S 706 mmHg 97%
    01:00 +5°C° 0,7 mm 3 m/S 706 mmHg 97%
    02:00 +5°C° 0,9 mm 3 m/S 706 mmHg 97%
    03:00 +7°C° 0,9 mm 2 m/S 706 mmHg 97%
    04:00 +7°C° 0,9 mm 2 m/S 706 mmHg 97%
    05:00 +7°C° 0,8 mm 2 m/S 706 mmHg 97%
    06:00 +7°C° 0,8 mm 2 m/S 706 mmHg 98%
    07:00 +7°C° 0,8 mm 2 m/S 707 mmHg 98%
    08:00 +8°C° 0,2 mm 2 m/S 707 mmHg 97%
    09:00 +9°C° 0,2 mm 2 m/S 707 mmHg 96%
    10:00 +9°C° 0,2 mm 2 m/S 708 mmHg 96%
    11:00 +10°C° 0 mm 2 m/S 708 mmHg 94%
    12:00 +12°C° 0 mm 1 m/S 708 mmHg 92%
    13:00 +13°C° 0 mm 1 m/S 708 mmHg 90%
    14:00 +13°C° 0 mm 1 m/S 708 mmHg 90%
    15:00 +13°C° 0 mm 1 m/S 708 mmHg 90%
    16:00 +12°C° 0 mm 0 m/S 708 mmHg 91%
    17:00 +12°C° 0 mm 1 m/S 708 mmHg 92%
    18:00 +10°C° 0 mm 1 m/S 708 mmHg 94%
    19:00 +9°C° 0 mm 1 m/S 709 mmHg 96%
    20:00 +8°C° 0 mm 1 m/S 709 mmHg 95%
    21:00 +8°C° 0 mm 1 m/S 709 mmHg 95%
    22:00 +6°C° 0 mm 2 m/S 709 mmHg 94%
    23:00 +7°C° 0 mm 1 m/S 709 mmHg 93%

    25 Oktober, Mittwoch

    Zeit Temperatur Niederschläge Wind Luftdruck Luftfeuchtigkeit
    00:00 +6°C° 0 mm 1 m/S 709 mmHg 91%
    01:00 +6°C° 0 mm 1 m/S 709 mmHg 90%
    02:00 +6°C° 0 mm 1 m/S 708 mmHg 88%
    03:00 +6°C° 0 mm 1 m/S 708 mmHg 86%
    04:00 +5°C° 0 mm 1 m/S 708 mmHg 85%
    05:00 +5°C° 0 mm 1 m/S 708 mmHg 83%
    06:00 +5°C° 0 mm 1 m/S 708 mmHg 81%
    07:00 +5°C° 0 mm 1 m/S 708 mmHg 80%
    08:00 +7°C° 0 mm 1 m/S 708 mmHg 77%
    09:00 +9°C° 0 mm 1 m/S 709 mmHg 74%
    10:00 +12°C° 0 mm 1 m/S 709 mmHg 72%
    11:00 +13°C° 0 mm 1 m/S 709 mmHg 69%
    12:00 +14°C° 0 mm 1 m/S 709 mmHg 66%
    13:00 +15°C° 0 mm 1 m/S 709 mmHg 63%
    14:00 +15°C° 0 mm 1 m/S 708 mmHg 68%
    15:00 +14°C° 0 mm 1 m/S 708 mmHg 72%
    16:00 +14°C° 0 mm 1 m/S 708 mmHg 77%
    17:00 +12°C° 0 mm 2 m/S 708 mmHg 79%
    18:00 +9°C° 0 mm 2 m/S 708 mmHg 82%
    19:00 +7°C° 0 mm 2 m/S 708 mmHg 84%
    20:00 +7°C° 0 mm 2 m/S 708 mmHg 83%
    21:00 +7°C° 0 mm 2 m/S 708 mmHg 81%
    22:00 +7°C° 0 mm 1 m/S 709 mmHg 80%
    23:00 +7°C° 0 mm 1 m/S 708 mmHg 79%
    Mehr zeigen